Back to catalog

SL-6 R/B(2)

AliveHEO
NORAD 16186·ROCKET BODY·🇷🇺 Russia

Launched Oct 22, 1985 from Plesetsk Cosmodrome

Loading…

Next Passes (next 24 hours)

TLE

AgingSource: Space-Track

Epoch: Sep 4, 2026, 06:35 UTC

1 16186U 85098D   26247.27478675 -.00000656  00000-0  00000-0 0  9997
2 16186  71.4864   3.6970 5572737 339.9754   7.6769  2.03413820303458

Track SL-6 R/B(2) in real time with AllMySat

Download on the App Store